| time (UTC) | temp F | wind direction | speed knots | gust knots | rain 1hr in | rain 24hr in | rain mn in | humidity % | barometer mb |
| 20260510043020 | 50 | 247 | 0.0 | 0.0 | 0.00 | 0.20 | 0.03 | 35 | 1006.8 |
| 20260510041511 | 50 | 145 | 0.0 | 1.7 | 0.00 | 0.20 | 0.03 | 36 | 1006.7 |
| 20260510040009 | 50 | 173 | 0.9 | 4.3 | 0.00 | 0.20 | 0.03 | 33 | 1006.7 |
| 20260510034532 | 49 | 157 | 0.0 | 4.3 | 0.00 | 0.20 | 0.03 | 36 | 1006.7 |
| 20260510033028 | 50 | 136 | 0.9 | 4.3 | 0.00 | 0.20 | 0.03 | 41 | 1006.6 |
| 20260510031524 | 50 | 167 | 2.6 | 7.8 | 0.00 | 0.20 | 0.03 | 31 | 1006.5 |
| 20260510030027 | 49 | 156 | 0.9 | 4.3 | 0.00 | 0.20 | 0.03 | 34 | 1006.4 |
| 20260510024513 | 50 | 147 | 0.9 | 4.3 | 0.00 | 0.20 | 0.03 | 36 | 1006.3 |
| 20260510023007 | 50 | 134 | 0.0 | 0.0 | 0.00 | 0.20 | 0.03 | 37 | 1006.2 |
| 20260510021601 | 50 | 144 | 0.9 | 2.6 | 0.00 | 0.20 | 0.03 | 37 | 1006.3 |
| 20260510020057 | 50 | 150 | 0.0 | 2.6 | 0.00 | 0.20 | 0.03 | 39 | 1006.5 |
| 20260510014553 | 50 | 148 | 0.0 | 1.7 | 0.00 | 0.20 | 0.03 | 44 | 1006.2 |
| 20260510013049 | 51 | 150 | 0.9 | 2.6 | 0.00 | 0.20 | 0.03 | 50 | 1006.2 |
| 20260510011514 | 52 | 174 | 0.0 | 2.6 | 0.00 | 0.20 | 0.03 | 51 | 1006.1 |
| 20260510010009 | 52 | 218 | 0.0 | 1.7 | 0.00 | 0.20 | 0.03 | 46 | 1006.0 |
| 20260510004502 | 52 | 175 | 0.0 | 0.9 | 0.00 | 0.20 | 0.03 | 46 | 1005.8 |
| 20260510003100 | 52 | 175 | 0.0 | 1.7 | 0.00 | 0.20 | 0.03 | 47 | 1005.9 |
| 20260510001556 | 52 | 163 | 0.0 | 0.0 | 0.00 | 0.20 | 0.03 | 49 | 1005.9 |
| 20260510000050 | 53 | 163 | 0.0 | 0.9 | 0.00 | 0.20 | 0.03 | 50 | 1005.7 |
| 20260509234547 | 53 | 146 | 0.0 | 1.7 | 0.00 | 0.20 | 0.03 | 52 | 1005.7 |
| 20260509233039 | 53 | 161 | 0.9 | 2.6 | 0.00 | 0.20 | 0.03 | 56 | 1005.6 |
| 20260509231539 | 53 | 201 | 0.9 | 5.2 | 0.00 | 0.20 | 0.03 | 58 | 1005.4 |
| 20260509230032 | 53 | 167 | 1.7 | 6.1 | 0.00 | 0.20 | 0.03 | 58 | 1005.3 |
| 20260509224529 | 53 | 196 | 6.1 | 12.2 | 0.00 | 0.20 | 0.03 | 57 | 1005.1 |
| 20260509223021 | 53 | 189 | 3.5 | 6.1 | 0.00 | 0.20 | 0.03 | 55 | 1005.2 |
| 20260509221519 | 53 | 177 | 3.5 | 8.7 | 0.00 | 0.20 | 0.03 | 54 | 1005.2 |
| 20260509220015 | 53 | 159 | 4.3 | 10.4 | 0.00 | 0.20 | 0.03 | 55 | 1005.2 |
| 20260509214508 | 53 | 184 | 3.5 | 7.8 | 0.00 | 0.20 | 0.03 | 53 | 1005.5 |
| 20260509213004 | 53 | 176 | 2.6 | 7.0 | 0.00 | 0.20 | 0.03 | 46 | 1005.7 |
| 20260509211602 | 52 | 172 | 4.3 | 7.0 | 0.00 | 0.20 | 0.03 | 38 | 1005.7 |
| 20260509210057 | 52 | 173 | 3.5 | 7.0 | 0.00 | 0.20 | 0.03 | 39 | 1005.9 |
| 20260509204550 | 52 | 161 | 2.6 | 6.1 | 0.00 | 0.20 | 0.03 | 41 | 1005.9 |
| 20260509203106 | 52 | 175 | 3.5 | 6.1 | 0.00 | 0.20 | 0.03 | 42 | 1006.1 |
| 20260509201540 | 51 | 175 | 4.3 | 6.1 | 0.00 | 0.20 | 0.03 | 38 | 1006.1 |
| 20260509200036 | 51 | 170 | 3.5 | 7.8 | 0.00 | 0.20 | 0.03 | 33 | 1006.2 |
| 20260509194502 | 51 | 181 | 1.7 | 4.3 | 0.00 | 0.20 | 0.03 | 31 | 1006.4 |
| 20260509193131 | 51 | 200 | 1.7 | 6.1 | 0.00 | 0.20 | 0.03 | 32 | 1006.6 |
| 20260509191526 | 51 | 180 | 2.6 | 8.7 | 0.00 | 0.20 | 0.03 | 37 | 1006.6 |
| 20260509190019 | 51 | 178 | 4.3 | 7.8 | 0.00 | 0.20 | 0.03 | 45 | 1006.7 |
| 20260509184513 | 52 | 177 | 4.3 | 7.0 | 0.00 | 0.20 | 0.03 | 50 | 1006.8 |
| 20260509183013 | 52 | 158 | 4.3 | 8.7 | 0.00 | 0.20 | 0.03 | 52 | 1006.8 |
| 20260509181502 | 52 | 156 | 6.1 | 10.4 | 0.00 | 0.20 | 0.03 | 50 | 1006.8 |
| 20260509180106 | 52 | 175 | 6.1 | 10.4 | 0.01 | 0.20 | 0.03 | 41 | 1006.8 |
| 20260509174551 | 51 | 172 | 3.5 | 8.7 | 0.01 | 0.20 | 0.03 | 36 | 1006.7 |
| 20260509173046 | 51 | 135 | 3.5 | 7.0 | 0.01 | 0.20 | 0.03 | 31 | 1006.7 |
| 20260509171541 | 51 | 191 | 5.2 | 9.6 | 0.01 | 0.20 | 0.03 | 31 | 1006.8 |
| 20260509170037 | 51 | 202 | 6.1 | 10.4 | 0.00 | 0.19 | 0.02 | 28 | 1007.0 |
| 20260509164533 | 51 | 142 | 5.2 | 10.4 | 0.01 | 0.19 | 0.02 | 22 | 1007.1 |
| 20260509163058 | 50 | 232 | 5.2 | 10.4 | 0.02 | 0.25 | 0.02 | 16 | 1007.3 |
| 20260509161557 | 50 | 168 | 3.5 | 8.7 | 0.02 | 0.25 | 0.02 | 13 | 1007.6 |
| 20260509160019 | 50 | 169 | 1.7 | 6.1 | 0.04 | 0.25 | 0.02 | 11 | 1007.7 |
| 20260509154520 | 49 | 141 | 0.9 | 2.6 | 0.03 | 0.24 | 0.01 | 10 | 1008.0 |
| 20260509153012 | 48 | 87 | 0.0 | 0.0 | 0.03 | 0.23 | 0.23 | 11 | 1008.3 |
| 20260509151503 | 46 | 10 | 0.0 | 0.0 | 0.03 | 0.22 | 0.22 | 15 | 1008.5 |
| 20260509150058 | 46 | 29 | 0.0 | 0.0 | 0.02 | 0.21 | 0.21 | 15 | 1008.6 |
| 20260509144604 | 46 | 31 | 0.0 | 0.0 | 0.03 | 0.21 | 0.21 | 16 | 1008.8 |
| 20260509143055 | 45 | 355 | 0.9 | 1.7 | 0.03 | 0.20 | 0.20 | 17 | 1008.9 |
| 20260509141555 | 44 | 28 | 0.0 | 1.7 | 0.03 | 0.19 | 0.19 | 18 | 1008.8 |
| 20260509140054 | 44 | 355 | 0.0 | 1.7 | 0.04 | 0.19 | 0.19 | 19 | 1008.8 |
| 20260509134554 | 43 | 5 | 0.9 | 2.6 | 0.05 | 0.18 | 0.18 | 21 | 1008.8 |
| 20260509133051 | 43 | 341 | 0.0 | 1.7 | 0.06 | 0.17 | 0.17 | 21 | 1008.9 |
| 20260509131551 | 44 | 5 | 0.0 | 1.7 | 0.06 | 0.16 | 0.16 | 20 | 1008.7 |
| 20260509130100 | 43 | 346 | 0.9 | 1.7 | 0.06 | 0.15 | 0.15 | 21 | 1008.7 |
| 20260509124549 | 42 | 170 | 0.0 | 0.0 | 0.04 | 0.13 | 0.13 | 22 | 1009.0 |
| 20260509123051 | 42 | 170 | 0.0 | 0.0 | 0.02 | 0.11 | 0.11 | 23 | 1009.2 |
| 20260509121545 | 41 | 170 | 0.0 | 0.0 | 0.02 | 0.10 | 0.10 | 24 | 1009.2 |
| 20260509120044 | 41 | 170 | 0.0 | 0.0 | 0.01 | 0.09 | 0.09 | 25 | 1009.2 |
| 20260509114544 | 40 | 170 | 0.0 | 0.0 | 0.01 | 0.09 | 0.09 | 27 | 1009.3 |
| 20260509113042 | 40 | 170 | 0.0 | 0.9 | 0.01 | 0.09 | 0.09 | 28 | 1009.3 |
| 20260509111539 | 39 | 170 | 0.0 | 0.0 | 0.00 | 0.08 | 0.08 | 30 | 1009.2 |
| 20260509110038 | 39 | 170 | 0.0 | 1.7 | 0.00 | 0.08 | 0.08 | 31 | 1009.1 |
| 20260509104538 | 39 | 170 | 0.0 | 0.0 | 0.01 | 0.08 | 0.08 | 32 | 1009.1 |
| 20260509103034 | 38 | 170 | 0.0 | 0.0 | 0.01 | 0.08 | 0.08 | 34 | 1008.9 |
| 20260509101538 | 38 | 170 | 0.0 | 0.9 | 0.02 | 0.08 | 0.08 | 35 | 1008.8 |
| 20260509100035 | 38 | 170 | 0.0 | 0.9 | 0.02 | 0.08 | 0.08 | 37 | 1008.8 |
| 20260509094532 | 38 | 170 | 0.0 | 0.9 | 0.01 | 0.07 | 0.07 | 40 | 1009.0 |
| 20260509093031 | 38 | 136 | 0.0 | 2.6 | 0.01 | 0.07 | 0.07 | 40 | 1009.1 |
| 20260509091529 | 37 | 173 | 0.0 | 2.6 | 0.00 | 0.06 | 0.06 | 41 | 1009.4 |
| 20260509090029 | 37 | 161 | 0.0 | 0.0 | 0.00 | 0.06 | 0.06 | 40 | 1009.4 |
| 20260509084534 | 37 | 161 | 0.0 | 0.0 | 0.00 | 0.06 | 0.06 | 39 | 1009.6 |
| 20260509083034 | 37 | 161 | 0.0 | 0.0 | 0.00 | 0.06 | 0.06 | 40 | 1009.6 |
| 20260509081528 | 36 | 161 | 0.0 | 0.0 | 0.00 | 0.06 | 0.06 | 41 | 1009.7 |
| 20260509080034 | 36 | 161 | 0.0 | 0.0 | 0.00 | 0.06 | 0.06 | 41 | 1009.7 |
| 20260509074524 | 36 | 161 | 0.0 | 0.0 | 0.00 | 0.06 | 0.06 | 44 | 1009.6 |
| 20260509073021 | 36 | 161 | 0.0 | 0.0 | 0.00 | 0.06 | 0.06 | 45 | 1009.6 |
| 20260509071520 | 35 | 161 | 0.0 | 0.0 | 0.00 | 0.06 | 0.06 | 46 | 1009.6 |
| 20260509070120 | 35 | 161 | 0.0 | 0.0 | 0.00 | 0.06 | 0.06 | 50 | 1009.7 |
| 20260509064521 | 35 | 161 | 0.0 | 0.0 | 0.00 | 0.06 | 0.06 | 53 | 1009.7 |
| 20260509063013 | 35 | 161 | 0.0 | 0.0 | 0.00 | 0.06 | 0.06 | 56 | 1009.9 |
| 20260509061512 | 35 | 161 | 0.0 | 0.0 | 0.00 | 0.06 | 0.06 | 58 | 1010.1 |
| 20260509060010 | 36 | 161 | 0.0 | 0.0 | 0.00 | 0.06 | 0.06 | 60 | 1010.2 |
| 20260509054507 | 36 | 161 | 0.0 | 0.0 | 0.00 | 0.06 | 0.06 | 62 | 1010.2 |
| 20260509053003 | 37 | 161 | 0.0 | 0.0 | 0.00 | 0.06 | 0.06 | 64 | 1010.4 |
| 20260509051503 | 38 | 161 | 0.0 | 0.0 | 0.00 | 0.06 | 0.06 | 66 | 1010.6 |
| 20260509050136 | 38 | 161 | 0.0 | 0.0 | 0.00 | 0.06 | 0.06 | 67 | 1010.5 |
| 20260509044603 | 39 | 161 | 0.0 | 0.0 | 0.00 | 0.06 | 0.06 | 67 | 1010.7 |